Regional Weather Roundup
Issued by NWS Charleston, SC

Current Version | Previous Version | Graphics & Text | Print | Product List | Glossary On
Versions: 1 2 3 4 5 6 7 8 9 10 11 12 13 14 15 16 17 18 19 20 21 22 23 24 25 26 27 28 29 30 31 32 33 34 35 36 37 38 39 40 41 42 43 44 45 46 47 48 49 50
000
ASUS42 KCHS 040212
RWRCHS

REGIONAL WEATHER ROUNDUP
NATIONAL WEATHER SERVICE CHARLESTON SC
1000 PM EDT FRI JUL 03 2015

NOTE: "FAIR" INDICATES FEW OR NO CLOUDS BELOW 12,000 FEET WITH NO
SIGNIFICANT WEATHER AND/OR OBSTRUCTIONS TO VISIBILITY.

NOT ALL STATIONS ARE QUALITY CONTROLLED BY THE NATIONAL
WEATHER SERVICE. USE DATA WITH CAUTION...ESPECIALLY
DEWPOINT OBSERVATIONS.

SCZ027-030-031-034>040-042>050-040300-
...SOUTHEAST SOUTH CAROLINA...

CITY           SKY/WX    TMP DP  RH WIND       PRES   REMARKS
N CHARLESTON   PTCLDY    76  73  91 S6        30.01R
WATERFRONT PAR   N/A     81  76  85 S7        29.98R
MOUNT PLEASANT FAIR      79  75  89 SW5       30.01R
JOHNS ISLAND   FAIR      81  75  83 S8        30.01R
PINOPOLIS      NOT AVBL
MONCKS CORNER  FAIR      75  70  83 SW5       30.00R
SUMMERVILLE    FAIR      73  72  94 S3        30.01S
BEAUFORT MCAS  CLEAR     81  77  88 S3        30.01R
BEAUFORT ARPT  FAIR      81  77  89 CALM      30.01R
HILTON HEAD IS CLEAR     82  77  83 S10G18    30.02S HX  91
WALTERBORO     PTCLDY    73  72  94 SE5       30.01S
ALLENDALE      FAIR      75  72  88 CALM      29.99S

...SOUTHERN MIDLANDS AND PEE DEE...

CITY           SKY/WX    TMP DP  RH WIND       PRES   REMARKS
GEORGETOWN     NOT AVBL
KINGSTREE      NOT AVBL
ORANGEBURG     MOCLDY    75  70  84 SW5       30.00R
BARNWELL       FAIR      77  73  88 CALM      30.00R
AIKEN          NOT AVBL
MANNING        FAIR      75  70  83 SW6       29.99R
COLUMBIA       MOCLDY    80  69  69 SW9       29.97R
SUMTER         CLOUDY    79  69  72 SW14      29.95R
FLORENCE       PTCLDY    76  71  85 SW9       29.95R
MYRTLE BEACH   CLEAR     75  70  83 SW7       29.98S
N MYRTLE BEACH MOCLDY    75  69  81 SW9       29.96R

$$

GAZ063-065-086>088-099>101-113>116-118-119-134>141-150-040300-
...SOUTHEAST GEORGIA...

CITY           SKY/WX    TMP DP  RH WIND       PRES   REMARKS
SAVANNAH ARPT  PTCLDY    83  67  58 S7        30.01S
HUNTER AAF     CLEAR     82  77  82 S8        30.00R HX  90
FORT STEWART   CLEAR     82  69  65 S2        30.00R
STATESBORO     NOT AVBL
SYLVANIA       CLEAR     78  76  95 CALM      30.01S
CLAXTON        FAIR      79  73  83 CALM      30.01R

...CSRA...CENTRAL AND FAR SOUTHEAST GEORGIA...

CITY           SKY/WX    TMP DP  RH WIND       PRES   REMARKS
THOMSON        PTCLDY    75  75  99 CALM      30.04S
AUGUSTA-BUSH   PTCLDY    76  72  87 SW3       29.99R
AUGUSTA-DANIEL PTCLDY    79  72  79 SW3       30.01R
SWAINSBORO     FAIR      82  77  83 CALM      30.01S HX  91
VIDALIA        CLEAR     81  72  74 SW3       30.02R
EASTMAN        FAIR      82  72  72 SW3       30.04R
HAZLEHURST     FAIR      82  73  75 CALM      30.02R
ALMA           CLEAR     79  73  82 CALM      30.03R
WAYCROSS       CLEAR     82  77  83 CALM      30.03R HX  91
JESUP          FAIR      81  75  83 SW3       30.03R
BAXLEY         FAIR      81  72  74 CALM      30.02R
BRUNSWICK      CLEAR     82  73  74 S12       30.05R
SAINT SIMONS   CLEAR     81  75  82 S15G22    30.04R

$$

SCZ027-028-034-036>038-045-046-048>050-GAZ119-141-040300-
...LAKE AND SUPPLEMENTAL COASTAL OBSERVATIONS...

STATION/POSITION TIME  TEMP    WIND        PRES    WAVE   SWELL
                       AIR SEA DIR/SP/G            HT/PER HT/PER/DIR
                 (UTC) (F)     (DEG/KT/KT) (MB)    (FT/S) (FT/S/D)
UPR LAKE MARION  NOT AVBL
WINYAH BAY       NOT AVBL
LAKE MURRAY      0100   80     240/ 10/ 16 1013.5S
ACE BASIN NERRS  NOT AVBL
FORT PULASKI     0100   83 84  200/ 10/ 19 1016.6R
SAPELO ISLAND    0100   82     180/ 12     1017.0R

$$

ANZ835-935-AMZ111-154-330-350-352-354-370-450-454-472-040300-
...C-MAN AND BUOY OBSERVATIONS...

STATION/POSITION TIME  TEMP    WIND        PRES    WAVE   SWELL
                       AIR SEA DIR/SP/G            HT/PER HT/PER/DIR
                 (UTC) (F)     (DEG/KT/KT) (MB)    (FT/S) (FT/S/D)
BUOY 41004       0150   82 81  190/ 14/ 16 1015.5F   3/ 9   2/ 9
BUOY 41008       0150   80 79  190/ 14/ 16 1017.0R   3/ 9   2/140/ 9
FOLLY BEACH CMAN 0100   81     190/ 17/ 19 1015.8F
CAPERS NEARSHORE 0108   81     210/ 19/ 25 1015.7F
FRIPP NEARSHORE  0100   82     200/ 14/ 16 1015.7F


STATION/POSITION TIME  TEMP    WIND        PRES    WAVE   SWELL
                       AIR SEA DIR/SP/G            HT/PER HT/PER/DIR
                 (UTC) (F)     (DEG/KT/KT) (MB)    (FT/S) (FT/S/D)
5E ST. MARYS GA  0121      78                N/A     3/ 9
FRYING PAN BUOY  0150   81 79  230/ 21/ 25 1014.7R   6/ 6   2/170/ 9
BUOY 41025       0150   81 81  230/ 19/ 25 1012.5F   6/ 6   2/330/15
CAPE LOOKOUT NC  0100   80     220/ 15/ 20 1012.4F
BUOY 41002       0150   81 80  230/ 14/ 16 1019.0R   5/ 9   3/150/ 9
BUOY 41010       0150   83 85  150/ 10/ 12 1020.1R   3/ 8   3/140/ 8
ST AUGUSTINE FL  0200   77 74  180/  8/  8 1019.6R


$$


USA.gov is the U.S. government's official web portal to all federal, state and local government web resources and services.